Temperature
20 19 19 19 19 19 20 20 20 20 20 19 19 19 19 19 19 19 19 18 18 18 18 18 18 18 18 18 18 18 18 17 17 17 17 17 17 17 17 17 17 17 17
20 20 19 19 19 19 20 20 20 20 20 19 19 19 19 19 19 19 19 18 18 18 18 18 18 18 18 18 18 18 17 17 17 17 17 17 17 17 17 17 17 17 17
21 20 20 19 20 19 20 20 20 19 19 19 19 19 19 19 19 18 18 18 18 18 18 18 18 18 18 17 17 17 17 17 17 17 17 17 17 17 17 17 17 17 17
21 20 20 20 20 20 20 19 19 19 19 19 19 19 19 19 19 18 18 18 18 18 18 18 18 18 17 17 17 17 17 17 17 17 17 17 17 17 17 17 17 17 17
20 20 20 20 20 20 19 19 19 19 19 19 19 19 19 19 18 18 18 18 18 18 18 18 18 17 17 17 17 17 17 17 17 17 17 17 17 17 17 17 17 17 17
21 20 20 20 20 19 19 19 19 19 19 19 19 19 18 18 18 18 18 18 18 18 18 18 17 17 17 17 17 17 17 17 17 17 17 17 17 17 17 17 17 17 17
21 20 20 20 19 19 19 19 19 19 19 19 19 18 18 18 18 18 18 18 18 18 18 18 17 17 17 17 17 17 17 17 17 17 17 17 17 17 17 17 17 17 17
21 20 20 19 19 19 19 19 19 19 19 19 18 18 18 18 18 18 18 18 18 18 18 17 17 17 17 17 17 17 17 17 17 17 17 17 17 17 17 17 17 17 17
20 20 19 19 19 19 19 19 19 19 19 18 18 18 18 18 18 18 18 18 18 18 17 17 17 17 17 17 17 17 17 17 17 17 17 17 17 17 17 17 17 17 17
20 20 19 19 19 19 19 19 19 19 18 18 18 18 18 18 18 18 18 18 18 18 17 17 17 17 17 17 17 17 17 17 17 17 17 17 17 17 17 17 17 17 17
19 19 19 19 19 19 19 19 19 18 18 18 18 18 18 18 18 18 18 18 18 18 17 17 17 17 17 17 17 17 17 17 17 17 17 17 17 17 17 17 17 17 17
19 19 19 19 19 19 19 18 18 18 18 18 18 18 18 18 18 18 18 18 17 17 17 17 17 17 17 17 17 17 17 17 17 17 17 17 17 17 17 17 17 17 16
19 19 19 19 19 19 19 18 18 18 18 18 18 18 18 18 18 18 18 17 17 17 17 17 17 17 17 17 17 17 17 17 17 17 17 17 17 17 17 17 17 17 16
19 19 19 19 19 19 19 18 18 18 18 18 18 18 18 18 18 18 18 18 17 17 17 17 17 17 17 17 17 17 17 17 17 17 17 17 17 17 17 17 17 17 16
20 20 19 19 19 19 19 19 18 18 18 18 18 18 18 18 18 18 18 18 17 17 17 17 17 17 17 17 17 17 17 17 17 17 17 17 17 17 17 17 17 16 16
20 20 19 19 19 19 19 18 19 18 18 18 18 18 18 18 18 18 18 18 17 17 17 17 17 17 17 17 17 17 17 17 17 17 17 17 17 17 17 17 17 16 16
20 19 19 19 18 18 18 18 18 18 18 18 18 18 18 17 17 18 17 17 17 17 17 17 17 17 17 17 17 17 17 17 17 17 17 17 17 17 17 16 16 16 16
19 19 19 19 18 18 18 18 18 18 18 18 18 18 17 17 17 17 17 17 17 17 17 17 17 17 17 17 17 17 17 17 17 17 17 17 17 17 16 16 16 16 16
19 19 19 18 18 18 18 18 18 18 18 18 18 18 17 17 17 17 17 17 17 17 17 17 17 17 17 17 17 17 17 17 17 17 17 16 16 16 16 16 16 16 16
19 19 18 18 18 18 17 17 17 17 17 18 18 18 17 17 17 17 17 17 17 17 17 17 17 17 17 17 17 17 17 17 16 16 16 16 16 16 16 16 16 16 16
19 19 18 18 18 18 17 17 17 17 18 17 18 17 17 17 17 17 17 17 17 17 17 17 17 17 16 16 16 16 16 16 16 16 16 16 16 16 16 16 16 16 16
19 19 18 18 18 18 18 17 17 17 18 18 17 17 17 17 17 17 17 17 17 17 17 17 17 16 16 16 16 16 16 16 16 16 16 16 16 16 16 16 16 16 16
19 19 19 18 18 18 17 17 17 17 17 17 17 17 17 17 17 17 17 17 17 17 17 17 17 16 16 16 16 16 16 17 17 17 17 17 16 16 16 16 16 16 16
19 19 19 18 18 18 17 17 17 17 17 17 17 17 17 17 17 17 17 17 17 17 17 16 16 16 16 16 16 16 16 17 17 17 17 17 17 17 17 17 16 16 16
19 19 19 18 18 18 17 17 17 17 17 17 17 17 17 17 17 17 17 17 16 16 16 16 16 16 16 16 16 16 16 17 17 17 17 17 17 17 17 17 17 16 16
19 19 18 18 18 18 17 17 17 17 17 17 17 17 17 17 17 17 17 16 16 16 16 16 16 16 16 16 16 16 16 16 17 17 17 17 17 17 17 17 17 17 17
Wind_Speed
8 12 19 19 18 18 18 18 19 19 19 19 18 18 17 16 15 14 13 13 12 12 12 12 12 12 12 12 13 14 14 14 15 16 16 16 16 17 17 17 17 16 18
13 16 21 20 19 18 18 18 18 18 18 18 17 16 16 15 14 13 13 12 12 12 12 12 13 13 13 14 14 14 14 14 14 15 15 15 16 16 16 17 15 15 17
16 17 20 20 19 19 18 18 17 17 17 17 16 15 15 14 13 13 12 12 12 13 13 13 13 13 13 14 14 14 13 14 14 14 14 13 14 15 16 16 16 16 16
16 17 19 21 20 19 18 18 17 17 16 16 15 15 14 13 13 13 12 12 13 13 13 13 13 13 14 14 14 13 13 14 14 14 12 12 13 15 16 16 16 15 16
13 16 19 22 20 20 19 18 17 17 16 15 15 14 14 13 13 13 12 12 13 13 13 13 14 14 13 13 13 13 13 13 14 12 11 12 12 14 15 15 15 15 15
13 15 19 22 21 20 19 18 17 16 15 15 14 13 13 13 12 12 12 12 12 12 13 13 13 13 13 12 12 12 12 13 12 11 11 11 12 14 15 15 15 15 15
13 13 19 22 21 20 19 18 17 16 15 14 14 13 13 12 12 12 12 12 12 12 12 12 12 12 11 11 10 11 12 13 12 11 10 10 12 13 14 14 14 14 14
15 12 17 22 21 20 19 18 17 16 15 14 14 13 12 12 11 11 11 12 12 11 11 11 11 10 10 10 10 11 12 12 11 10 10 10 12 13 13 13 14 14 13
12 11 12 17 19 20 19 18 17 16 15 14 14 13 12 12 11 11 11 11 11 11 11 10 10 9 9 9 9 11 11 12 11 9 9 9 12 13 13 13 13 13 13
10 9 8 12 14 15 17 18 17 16 15 14 14 13 12 11 11 10 9 10 10 10 10 9 9 8 8 8 8 10 11 12 10 9 8 9 12 12 12 12 12 12 12
12 8 8 8 10 12 13 17 17 16 15 14 13 13 11 9 9 9 8 9 9 9 9 8 8 7 7 7 8 9 10 9 9 8 7 9 11 11 11 11 11 11 11
15 12 9 9 8 11 12 12 12 12 12 11 10 10 9 8 8 7 8 8 9 8 8 7 7 7 6 6 7 8 8 8 7 7 7 9 10 10 10 10 10 10 10
14 13 10 10 9 9 7 9 8 9 9 9 9 10 9 7 6 5 4 4 5 6 5 5 5 5 5 5 5 6 7 7 6 6 7 9 9 10 10 10 9 9 9
13 13 12 10 9 7 7 7 7 7 7 7 8 10 8 5 4 4 3 3 3 3 3 4 3 3 3 4 5 5 6 6 6 6 7 9 9 9 9 9 9 9 9
14 13 12 11 10 8 6 6 7 6 7 8 8 9 9 5 3 3 3 3 3 3 3 2 2 2 2 2 3 4 5 6 6 6 5 8 9 8 9 9 8 9 9
13 12 10 10 9 8 7 6 6 7 8 8 8 9 10 8 5 4 3 3 3 3 3 3 2 2 2 2 2 3 4 5 5 6 5 6 8 8 8 8 8 8 9
12 11 11 11 9 8 8 7 7 8 9 7 8 9 10 9 8 6 4 3 4 4 4 3 3 2 2 2 2 2 3 4 5 5 5 6 6 7 8 9 8 8 9
12 12 11 12 10 9 7 6 6 8 8 7 9 9 10 10 9 7 4 4 5 4 4 3 2 2 1 2 1 1 1 2 4 4 5 5 5 6 7 9 9 9 9
13 13 12 10 11 10 8 6 6 7 7 8 8 9 10 10 10 8 5 4 6 4 3 3 2 2 2 2 2 1 0 1 2 3 4 5 6 6 6 7 8 9 10
12 12 12 10 11 9 6 5 4 4 4 6 7 8 10 10 11 9 6 5 6 4 3 3 3 2 2 2 2 2 1 1 1 2 3 4 6 6 7 7 7 7 9
11 12 13 13 12 10 7 7 6 5 4 4 5 8 10 10 11 9 5 5 5 4 4 5 3 3 2 2 2 2 2 1 1 2 3 3 5 6 7 8 8 7 7
12 13 13 14 13 12 9 7 4 4 3 3 3 5 9 11 11 9 7 6 5 5 5 4 3 3 2 2 2 2 1 2 2 1 2 4 4 4 6 8 8 8 8
12 13 13 13 13 12 10 6 5 4 3 2 3 4 5 9 10 9 9 7 6 5 5 5 5 5 3 1 1 3 3 3 2 2 2 2 3 3 4 6 8 8 9
11 10 10 11 11 11 11 10 10 8 6 6 5 5 4 7 8 9 9 8 6 5 5 5 4 3 4 3 1 1 1 3 2 1 2 1 2 4 4 4 6 7 9
8 9 9 9 10 11 11 12 11 8 6 5 4 6 5 5 6 8 9 7 6 5 5 5 5 4 3 4 3 2 2 1 1 2 1 2 2 2 3 4 5 6 7
6 7 8 9 9 10 11 11 12 11 9 8 7 7 6 4 4 6 7 7 6 5 6 5 5 6 4 3 3 3 3 3 2 2 2 1 2 2 2 2 3 4 6
Wind_Direction
157 156 152 145 139 132 127 123 120 119 118 119 121 122 122 122 121 120 118 116 116 114 113 114 114 115 115 114 115 117 117 118 118 118 118 117 116 115 114 113 110 110 113
149 155 154 148 142 136 131 127 124 123 122 122 124 124 124 124 122 121 120 118 117 116 115 114 114 116 115 114 115 116 118 120 119 119 118 117 117 116 114 113 112 114 115
146 153 154 150 146 140 135 132 130 128 127 126 127 126 126 125 125 123 121 120 118 117 115 114 115 116 115 115 115 116 117 118 119 115 112 113 118 119 117 115 114 115 116
147 151 153 153 149 144 140 137 135 133 132 131 130 129 128 128 126 123 121 120 119 117 117 116 115 114 113 114 115 114 114 112 113 110 107 112 117 120 118 116 116 118 117
144 150 156 155 152 148 145 143 141 139 137 135 134 132 131 130 127 125 123 121 120 119 119 116 114 114 114 113 114 114 113 112 111 108 106 109 115 121 120 119 120 118 117
144 150 159 156 155 152 150 149 146 145 143 140 139 137 136 133 131 130 126 124 122 120 118 116 115 115 114 113 114 116 116 113 108 108 109 113 120 124 122 122 122 121 120
147 152 161 159 158 156 154 153 151 150 149 145 143 142 140 138 135 133 129 126 124 122 120 119 118 117 115 114 115 115 116 116 112 110 110 115 124 125 124 123 122 121 119
152 153 161 161 160 159 159 158 157 155 153 150 147 145 143 140 137 136 133 131 129 126 125 123 122 119 114 112 115 120 123 124 121 116 114 120 127 126 125 125 124 123 122
151 151 156 161 163 163 162 161 161 159 157 154 151 149 147 143 141 139 137 136 133 131 130 128 125 121 116 112 116 123 129 130 125 123 124 126 132 131 130 129 128 128 127
150 152 151 155 159 162 164 165 164 162 161 159 155 154 152 149 146 141 138 138 137 136 134 132 128 123 118 116 121 127 131 129 128 126 126 135 137 137 136 134 132 131 131
160 156 151 151 152 155 161 169 166 165 166 162 161 159 152 140 140 141 145 145 143 141 137 135 130 124 115 115 122 127 128 132 132 132 137 143 143 141 139 138 135 134 134
171 167 162 157 153 155 166 167 163 161 162 158 157 148 138 138 144 149 159 155 151 145 140 137 132 122 107 103 111 117 125 135 139 144 151 150 150 147 144 141 140 139 139
171 171 170 165 160 159 157 153 151 149 150 151 151 143 142 141 145 143 146 141 133 130 120 117 107 109 114 114 116 124 134 137 144 151 161 158 157 155 151 149 147 145 144
172 176 171 168 163 160 155 153 150 149 151 153 157 154 151 149 148 147 143 132 117 118 116 108 107 120 130 138 140 143 147 151 154 157 166 166 165 165 162 159 158 157 153
178 179 173 171 170 163 155 159 160 159 161 162 163 167 168 165 164 164 161 156 149 146 142 136 130 136 140 141 152 156 157 161 162 161 169 175 173 175 173 169 168 167 167
180 178 174 173 171 164 166 167 163 165 166 167 173 180 182 179 175 171 172 174 176 179 177 166 161 148 146 144 150 160 161 160 163 165 172 181 185 187 186 182 179 179 181
179 175 175 174 170 173 173 174 170 169 168 173 183 189 190 188 184 180 178 186 192 186 168 141 122 116 125 135 143 153 158 165 170 178 183 189 195 200 199 197 193 191 193
171 174 178 181 176 181 181 174 170 172 173 180 186 192 195 195 189 180 181 191 184 168 154 136 126 116 117 137 152 163 154 169 181 187 192 200 207 215 216 212 208 205 204
172 171 174 178 177 184 183 176 173 169 174 179 184 190 195 195 191 181 183 185 170 156 154 155 130 137 148 154 164 151 163 201 200 200 210 214 218 225 227 226 224 221 221
168 169 172 178 182 178 173 169 165 161 171 173 182 191 191 192 187 179 179 177 165 151 153 147 134 112 121 137 123 92 33 260 225 223 227 225 224 230 232 233 234 237 237
168 172 176 181 180 174 175 182 176 179 177 178 186 188 188 187 182 175 175 169 165 164 168 155 131 122 107 109 93 55 17 0 255 241 236 233 230 230 231 231 232 236 243
179 180 181 185 181 181 182 179 167 154 163 175 174 184 188 187 182 181 173 172 166 155 152 154 140 129 118 124 128 104 28 346 327 267 236 232 234 228 233 236 234 234 238
186 188 189 186 182 179 174 157 140 123 113 146 171 190 195 188 184 179 177 167 164 163 167 169 158 147 150 139 137 144 150 220 289 316 280 248 237 230 237 239 238 237 238
192 189 185 178 176 175 171 170 169 176 182 189 184 188 188 187 180 177 173 167 166 167 167 171 162 153 148 157 142 111 141 154 159 302 320 299 260 239 239 238 238 239 238
183 182 179 171 173 175 177 178 178 183 182 172 170 176 181 183 177 175 170 166 168 169 170 162 155 158 156 159 162 149 127 96 119 152 267 312 306 261 246 241 242 244 242
170 172 173 172 175 176 179 182 182 183 175 172 181 184 183 178 177 176 172 169 170 167 167 165 161 164 164 156 158 158 158 159 180 171 193 246 281 299 287 258 245 248 247
Height
1509 1513 1516 1519 1521 1523 1525 1526 1528 1529 1531 1532 1533 1535 1536 1537 1538 1539 1539 1540 1541 1542 1542 1543 1544 1544 1545 1546 1547 1548 1549 1550 1551 1552 1553 1554 1555 1555 1557 1558 1559 1560 1561
1507 1512 1516 1519 1522 1524 1526 1528 1529 1531 1532 1533 1535 1536 1537 1538 1539 1540 1541 1542 1542 1543 1544 1544 1545 1546 1547 1547 1548 1549 1551 1552 1553 1554 1555 1556 1557 1558 1559 1560 1561 1562 1564
1507 1512 1516 1520 1522 1525 1527 1529 1531 1532 1534 1535 1536 1538 1539 1540 1541 1542 1543 1543 1544 1545 1545 1546 1546 1547 1548 1549 1550 1551 1552 1553 1554 1556 1557 1558 1559 1560 1561 1562 1564 1565 1566
1508 1512 1516 1520 1523 1526 1528 1530 1532 1533 1535 1536 1538 1539 1541 1542 1543 1544 1544 1545 1546 1546 1547 1548 1548 1549 1550 1551 1552 1553 1554 1555 1556 1558 1559 1560 1561 1563 1564 1565 1566 1567 1569
1509 1513 1517 1520 1523 1526 1529 1531 1533 1534 1536 1538 1539 1541 1542 1543 1544 1545 1546 1547 1548 1548 1549 1550 1551 1552 1552 1553 1555 1556 1557 1557 1559 1560 1561 1562 1563 1565 1566 1567 1569 1570 1571
1510 1514 1518 1521 1524 1527 1529 1531 1533 1535 1537 1539 1541 1542 1544 1545 1546 1547 1548 1549 1550 1551 1551 1552 1553 1554 1555 1556 1557 1558 1559 1560 1561 1562 1563 1564 1566 1567 1568 1570 1571 1572 1573
1510 1515 1518 1522 1525 1527 1530 1532 1534 1536 1538 1540 1542 1543 1545 1546 1548 1549 1550 1551 1552 1553 1553 1554 1555 1556 1557 1558 1559 1560 1561 1562 1563 1564 1565 1566 1568 1569 1570 1572 1573 1574 1575
1511 1515 1519 1522 1525 1528 1531 1533 1535 1537 1539 1541 1543 1545 1546 1548 1549 1550 1551 1552 1553 1555 1556 1557 1557 1558 1559 1560 1561 1562 1563 1564 1565 1566 1567 1568 1570 1571 1572 1574 1575 1576 1577
1512 1515 1519 1522 1525 1528 1531 1534 1536 1538 1540 1542 1544 1546 1548 1549 1550 1552 1553 1554 1555 1556 1557 1559 1560 1561 1561 1562 1563 1564 1565 1566 1567 1568 1569 1570 1571 1573 1574 1575 1577 1578 1579
1512 1516 1519 1522 1525 1528 1531 1534 1537 1539 1541 1543 1545 1547 1549 1550 1552 1553 1554 1556 1557 1558 1559 1560 1561 1562 1563 1564 1565 1566 1567 1568 1569 1570 1571 1572 1573 1574 1575 1577 1578 1579 1581
1512 1515 1518 1522 1525 1528 1531 1534 1537 1539 1542 1544 1546 1548 1550 1551 1553 1554 1556 1557 1558 1559 1560 1562 1563 1564 1565 1566 1567 1568 1569 1569 1570 1571 1572 1573 1575 1576 1577 1578 1579 1581 1582
1509 1513 1517 1521 1525 1528 1531 1534 1537 1539 1542 1544 1547 1549 1550 1552 1554 1555 1557 1558 1560 1561 1562 1563 1564 1565 1566 1567 1568 1569 1570 1571 1572 1573 1574 1575 1576 1577 1578 1579 1581 1582 1583
1508 1513 1516 1520 1524 1527 1531 1534 1537 1539 1542 1544 1547 1549 1551 1553 1554 1556 1557 1559 1560 1562 1563 1564 1565 1566 1568 1569 1570 1570 1571 1572 1573 1574 1575 1576 1577 1578 1579 1580 1581 1583 1584
1507 1511 1515 1519 1523 1527 1530 1533 1536 1539 1542 1544 1547 1549 1551 1553 1555 1556 1558 1560 1561 1563 1564 1565 1566 1567 1569 1570 1571 1572 1572 1573 1574 1575 1576 1577 1578 1579 1580 1581 1582 1583 1585
1506 1510 1513 1517 1522 1526 1530 1533 1536 1539 1542 1544 1547 1549 1552 1553 1555 1557 1559 1560 1562 1563 1565 1566 1567 1568 1570 1571 1572 1572 1573 1574 1575 1575 1576 1577 1578 1579 1581 1582 1583 1584 1585
1504 1508 1513 1517 1522 1526 1529 1533 1536 1538 1541 1544 1547 1549 1552 1554 1556 1558 1559 1561 1562 1564 1565 1567 1568 1569 1570 1571 1572 1573 1573 1574 1575 1576 1577 1578 1579 1580 1581 1582 1583 1584 1585
1503 1507 1512 1517 1521 1525 1529 1532 1535 1538 1541 1544 1547 1549 1552 1554 1556 1558 1560 1561 1563 1564 1565 1567 1568 1569 1570 1571 1572 1573 1574 1575 1576 1576 1577 1578 1579 1580 1581 1582 1583 1584 1585
1501 1506 1511 1515 1519 1524 1528 1531 1534 1538 1541 1544 1547 1549 1551 1553 1555 1558 1559 1561 1563 1564 1565 1567 1568 1569 1570 1571 1572 1573 1574 1575 1575 1576 1577 1578 1579 1580 1581 1582 1583 1584 1585
1499 1504 1508 1512 1517 1521 1526 1529 1533 1537 1540 1543 1546 1549 1551 1553 1555 1557 1559 1561 1562 1564 1565 1567 1568 1569 1570 1571 1572 1572 1573 1574 1575 1576 1577 1578 1578 1579 1581 1582 1582 1583 1584
1497 1502 1506 1511 1515 1519 1524 1527 1531 1535 1539 1542 1545 1547 1550 1552 1554 1556 1558 1560 1561 1563 1564 1565 1567 1568 1570 1571 1571 1572 1573 1574 1574 1575 1576 1577 1578 1579 1580 1581 1582 1582 1583
1495 1500 1503 1508 1512 1516 1520 1524 1528 1532 1536 1540 1543 1546 1549 1551 1553 1555 1557 1559 1560 1562 1563 1565 1566 1567 1569 1570 1571 1572 1572 1573 1574 1574 1575 1576 1577 1578 1579 1580 1581 1581 1582
1492 1496 1501 1504 1508 1512 1516 1521 1526 1530 1534 1538 1541 1544 1547 1549 1551 1553 1555 1557 1559 1560 1562 1563 1565 1566 1567 1569 1570 1571 1572 1573 1573 1573 1574 1575 1576 1577 1578 1578 1579 1580 1581
1490 1494 1497 1501 1505 1509 1514 1518 1523 1527 1531 1535 1539 1541 1544 1547 1550 1552 1554 1556 1557 1559 1560 1562 1564 1565 1566 1568 1569 1571 1571 1571 1572 1572 1573 1573 1574 1575 1576 1577 1578 1579 1580
1488 1491 1494 1498 1502 1507 1511 1515 1519 1522 1526 1530 1535 1539 1542 1545 1547 1549 1552 1554 1555 1557 1559 1561 1562 1563 1565 1566 1568 1569 1570 1570 1571 1571 1572 1572 1573 1574 1575 1576 1577 1577 1578
1486 1489 1492 1496 1500 1504 1508 1512 1516 1520 1524 1529 1532 1536 1539 1542 1544 1547 1549 1552 1553 1555 1557 1559 1560 1562 1563 1565 1566 1567 1568 1569 1570 1571 1571 1572 1572 1573 1574 1575 1575 1576 1577
1485 1487 1491 1494 1498 1501 1505 1509 1513 1517 1521 1525 1529 1532 1536 1538 1541 1544 1546 1549 1551 1553 1555 1557 1558 1560 1561 1563 1565 1566 1567 1568 1569 1570 1570 1571 1571 1572 1573 1573 1574 1575 1575